Location: Recife
(8.0585°S, 34.8848°W)
Time: 13:19:40
(UTC-03:00)

Transit 4A - Pass Details

Date: 23 April 2026
Orbit: 861 x 980 km, 66.8° (Epoch: 12 May)

Event Time Altitude Azimuth Distance (km) Brightness Sun altitude
Rises 22:18:24 0° 354° (N) 3,648 - -74.6°
Reaches altitude 10° 22:21:06 10° 0° (N) 2,695 - -75.3°
Maximum altitude 22:27:03 45° 71° (ENE) 1,274 - -76.7°
Drops below altitude 10° 22:32:53 10° 142° (SE) 2,643 - -78.0°
Sets 22:35:29 0° 148° (SSE) 3,571 - -78.6°
